CYBN

CFB Borden Heliport

Borden, Ontario, Canada
Issued Wind Visibility Temperature Dew Point Humidity Barometer
Sep-24
20:00 UTC
250°
6 KTS
9 miles 34° C
93° F
18° C
64° F
39% 30.1" Hg
1019.2 hPa
VFR
Sep-24
19:00 UTC
350°
3 KTS
9 miles 33° C
91° F
18° C
64° F
41% 30.12" Hg
1019.6 hPa
VFR
Sep-24
18:00 UTC
300°
8 KTS
9 miles 33° C
91° F
18° C
64° F
41% 30.13" Hg
1020 hPa
VFR
Sep-24
17:00 UTC
230°
3 KTS
9 miles 33° C
91° F
19° C
66° F
44% 30.14" Hg
1020.5 hPa
VFR
Sep-24
16:00 UTC
310°
3 KTS
9 miles 31° C
88° F
19° C
66° F
49% 30.15" Hg
1020.8 hPa
VFR
Sep-24
15:00 UTC
280°
4 KTS
9 miles 30° C
86° F
19° C
66° F
52% 30.16" Hg
1021.1 hPa
VFR
Sep-24
14:00 UTC
9 miles 27° C
81° F
20° C
68° F
66% 30.17" Hg
1021.4 hPa
VFR
Sep-24
13:00 UTC
9 miles 23° C
73° F
20° C
68° F
83% 30.17" Hg
1021.5 hPa
VFR
Sep-24
12:00 UTC
6 miles 17° C
63° F
17° C
63° F
100% 30.16" Hg
1021.4 hPa
VFR
Sep-24
11:22 UTC
1/63 miles 15° C
59° F
15° C
59° F
100% 30.16" Hg
1021 hPa
LIFR
Sep-24
11:13 UTC
1 1/4 miles 16° C
61° F
16° C
61° F
100% 30.16" Hg
1021 hPa
IFR
Sep-24
10:18 UTC
190°
2 KTS
3 miles 16° C
61° F
16° C
61° F
100% 30.14" Hg
1021 hPa
MVFR
Sep-24
10:08 UTC
2 miles 16° C
61° F
16° C
61° F
100% 30.14" Hg
1021 hPa
IFR
Sep-24
09:58 UTC
3/4 miles 16° C
61° F
16° C
61° F
100% 30.14" Hg
1021 hPa
LIFR
Sep-24
09:56 UTC
1 1/4 miles 16° C
61° F
16° C
61° F
100% 30.14" Hg
1021 hPa
IFR
Sep-24
09:13 UTC
5 miles 16° C
61° F
16° C
61° F
100% 30.13" Hg
1020 hPa
MVFR
Sep-24
08:55 UTC
2 1/4 miles 16° C
61° F
16° C
61° F
100% 30.13" Hg
1020 hPa
IFR
Sep-24
08:02 UTC
4 miles 16° C
61° F
16° C
61° F
100% 30.13" Hg
1020 hPa
MVFR
Sep-24
07:51 UTC
1/38 miles 16° C
61° F
16° C
61° F
100% 30.13" Hg
1020 hPa
LIFR
Sep-24
07:10 UTC
1 miles 16° C
61° F
16° C
61° F
100% 30.12" Hg
1020 hPa
IFR
Sep-24
07:00 UTC
1/63 miles 17° C
63° F
16° C
61° F
94% 30.12" Hg
1019.8 hPa
LIFR
Sep-24
06:57 UTC
1 1/4 miles 16° C
61° F
16° C
61° F
100% 30.12" Hg
1020 hPa
IFR
Sep-24
06:51 UTC
1 miles 16° C
61° F
16° C
61° F
100% 30.12" Hg
1020 hPa
IFR
Sep-24
06:34 UTC
1/63 miles 17° C
63° F
17° C
63° F
100% 30.12" Hg
1020 hPa
LIFR
Sep-24
06:32 UTC
3/4 miles 17° C
63° F
17° C
63° F
100% 30.12" Hg
1020 hPa
LIFR
Sep-24
06:19 UTC
3 miles 17° C
63° F
17° C
63° F
100% 30.12" Hg
1020 hPa
MVFR
Sep-24
06:09 UTC
1 1/4 miles 17° C
63° F
17° C
63° F
100% 30.11" Hg
1020 hPa
IFR
Sep-24
05:00 UTC
180°
2 KTS
6 miles 17° C
63° F
17° C
63° F
100% 30.11" Hg
1019.4 hPa
VFR
Sep-24
04:00 UTC
3 miles 18° C
64° F
17° C
63° F
94% 30.11" Hg
1019.4 hPa
MVFR
Sep-24
03:57 UTC
3/4 miles 18° C
64° F
18° C
64° F
100% 30.11" Hg
1020 hPa
LIFR
Sep-24
03:41 UTC
1/38 miles 18° C
64° F
18° C
64° F
100% 30.11" Hg
1020 hPa
LIFR
Sep-24
03:00 UTC
190°
2 KTS
8 miles 19° C
66° F
19° C
66° F
100% 30.1" Hg
1019.1 hPa
VFR
Sep-24
02:00 UTC
9 miles 20° C
68° F
19° C
66° F
94% 30.1" Hg
1019.3 hPa
VFR
Sep-24
01:00 UTC
9 miles 21° C
70° F
19° C
66° F
88% 30.09" Hg
1019 hPa
VFR
Sep-24
00:00 UTC
190°
2 KTS
9 miles 23° C
73° F
20° C
68° F
83% 30.09" Hg
1018.9 hPa
VFR
Sep-23
23:00 UTC
9 miles 27° C
81° F
20° C
68° F
66% 30.09" Hg
1018.8 hPa
VFR
Sep-23
22:00 UTC
010°
5 KTS
9 miles 30° C
86° F
20° C
68° F
55% 30.09" Hg
1018.8 hPa
VFR